This is the latest recevied weather packets stored in our database for station/object K8MUD. If no packets are shown the sender has not sent any weather packets the latest 10 day(s).
| Time | Temp. | Humidity | Pressure | Rain* | Wind** | Luminosity | Snow |
|---|---|---|---|---|---|---|---|
| 1778123879 | 9.44° C | 75% | 1012.8 hPa | 0 mm | - | - | - |
| 1778123579 | 9.44° C | 75% | 1012.8 hPa | 0 mm | - | - | - |
| 1778123279 | 9.44° C | 76% | 1012.8 hPa | 0 mm | - | - | - |
| 1778122979 | 9.44° C | 75% | 1012.8 hPa | 0 mm | - | - | - |
| 1778122679 | 9.44° C | 75% | 1012.8 hPa | 0 mm | - | - | - |
| 1778122378 | 10° C | 74% | 1012.8 hPa | 0 mm | - | - | - |
| 1778122078 | 10° C | 74% | 1012.6 hPa | 0 mm | - | - | - |
| 1778121778 | 10° C | 77% | 1012.5 hPa | 0 mm | - | - | - |
| 1778121478 | 10° C | 77% | 1012.6 hPa | 0 mm | - | - | - |
| 1778121178 | 10° C | 76% | 1012.6 hPa | 0 mm | - | - | - |
| 1778120878 | 10° C | 76% | 1012.6 hPa | 0 mm | - | - | - |
| 1778120578 | 10° C | 76% | 1012.6 hPa | 0 mm | - | - | - |
| 1778120278 | 10° C | 74% | 1012.6 hPa | 0 mm | - | - | - |
| 1778119978 | 10° C | 73% | 1012.5 hPa | 0 mm | - | - | - |
| 1778119678 | 10° C | 76% | 1012.4 hPa | 0 mm | - | - | - |
| 1778119378 | 10.56° C | 75% | 1012.4 hPa | 0 mm | - | - | - |
| 1778119078 | 10.56° C | 73% | 1012.3 hPa | 0 mm | - | - | - |
| 1778118778 | 10° C | 69% | 1012.5 hPa | 0 mm | - | - | - |
| 1778118478 | 10° C | 69% | 1012.4 hPa | 0 mm | - | - | - |
| 1778118178 | 10° C | 68% | 1012.3 hPa | 0 mm | - | - | - |
| 1778117877 | 10° C | 68% | 1012.3 hPa | 0 mm | - | - | - |
| 1778117577 | 10° C | 67% | 1012.4 hPa | 0 mm | - | - | - |
| 1778117277 | 10° C | 68% | 1012.3 hPa | 0 mm | - | - | - |
| 1778116977 | 10° C | 68% | 1012.2 hPa | 0 mm | - | - | - |
| 1778116677 | 10° C | 69% | 1012.2 hPa | 0 mm | - | - | - |
* Rain latest hour (hover to see other rain measurements)
** Current wind speed in m/s (hover to see current wind gust speed)